This is the latest recevied weather packets stored in our database for station/object WB4ROX. If no packets are shown the sender has not sent any weather packets the latest 10 day(s).
| Time | Temp. | Humidity | Pressure | Rain* | Wind** | Luminosity | Snow |
|---|---|---|---|---|---|---|---|
| 1777818644 | 1.67° C | 53% | 1019.6 hPa | 0 mm | - | 593 W/m² | - |
| 1777818342 | 1.11° C | 53% | 1019.2 hPa | 0 mm | - | 576 W/m² | - |
| 1777818038 | 1.11° C | 54% | 1019.4 hPa | 0 mm | - | 561 W/m² | - |
| 1777817735 | 1.11° C | 56% | 1019.4 hPa | 0 mm | - | 545 W/m² | - |
| 1777817432 | 1.11° C | 58% | 1019.4 hPa | 0 mm | - | 528 W/m² | - |
| 1777817128 | 0.56° C | 59% | 1019.3 hPa | 0 mm | - | 512 W/m² | - |
| 1777816826 | 1.11° C | 58% | 1019.4 hPa | 0 mm | - | 498 W/m² | - |
| 1777816523 | 0.56° C | 61% | 1019.1 hPa | 0 mm | - | 479 W/m² | - |
| 1777816220 | 1.11° C | 59% | 1019.2 hPa | 0 mm | - | 461 W/m² | - |
| 1777815918 | 0.56° C | 63% | 1019 hPa | 0 mm | - | 445 W/m² | - |
| 1777815615 | 1.11° C | 62% | 1019.2 hPa | 0 mm | - | 428 W/m² | - |
| 1777815312 | 0.56° C | 63% | 1019 hPa | 0 mm | - | 417 W/m² | - |
| 1777815009 | 0.56° C | 62% | 1019 hPa | 0 mm | - | 397 W/m² | - |
| 1777814705 | 0.56° C | 63% | 1019 hPa | 0 mm | - | 380 W/m² | - |
| 1777814401 | 0° C | 66% | 1019 hPa | 0 mm | - | 358 W/m² | - |
| 1777814099 | 0° C | 66% | 1019 hPa | 0 mm | - | 246 W/m² | - |
| 1777813795 | 0° C | 67% | 1018.9 hPa | 0 mm | - | 132 W/m² | - |
| 1777813493 | 0° C | 68% | 1019.1 hPa | 0 mm | - | 153 W/m² | - |
| 1777813190 | -0.56° C | 68% | 1018.9 hPa | 0 mm | - | 123 W/m² | - |
| 1777812888 | -0.56° C | 69% | 1018.8 hPa | 0 mm | - | 81 W/m² | - |
| 1777812584 | -0.56° C | 70% | 1018.9 hPa | 0 mm | - | 72 W/m² | - |
| 1777812282 | -0.56° C | 71% | 1018.5 hPa | 0 mm | - | 112 W/m² | - |
| 1777811980 | -0.56° C | 71% | 1018.8 hPa | 0 mm | - | 94 W/m² | - |
| 1777811679 | -0.56° C | 73% | 1018.6 hPa | 0 mm | - | 95 W/m² | - |
| 1777811374 | -1.11° C | 74% | 1018.6 hPa | 0 mm | - | 59 W/m² | - |
* Rain latest hour (hover to see other rain measurements)
** Current wind speed in m/s (hover to see current wind gust speed)